Location: *
(32.8667°N, 13.1833°E)
Time: 02:13:41
(UTC+00:00)

Cosmos 2322 - Pass Details

Date: 18 July 2019
Orbit: 840 x 855 km, 71.0° (Epoch: 23 August)

Event Time Altitude Azimuth Distance (km) Brightness Sun altitude
Exits shadow 20:06:17 39° 132° (SE) 1,246 4.0 -20.0°
Maximum altitude 20:07:19 42° 105° (ESE) 1,174 4.0 -20.2°
Drops below altitude 10° 20:12:35 10° 36° (NE) 2,461 6.2 -21.0°
Sets 20:15:09 0° 29° (NNE) 3,401 7.1 -21.4°
